Hickory, NC

5:33 AM EST on December 17, 2017 (GMT -0500)
Hickory Regional

Weather History for KHKY - July, 2012

Change the Weather History Date:

Tuesday, July 10, 2012

  Actual Average Record
Temperature  
Mean Temperature 78 °F -  
Max Temperature 86 °F 89 °F 99 °F (1993)
Min Temperature 71 °F 68 °F 50 °F (1961)
Cooling Degree Days 14    
Growing Degree Days 28 (Base 50)    
Moisture  
Dew Point 70 °F    
Average Humidity 83    
Maximum Humidity 96    
Minimum Humidity 59    
Precipitation  
Precipitation 0.36 in - - ()
Sea Level Pressure  
Sea Level Pressure 29.99 in    
Wind  
Wind Speed 5 mph (NE)    
Max Wind Speed 14 mph    
Max Gust Speed 23 mph    
Visibility 9 miles    
Events Rain , Thunderstorm    
Averages and records for this station are not official NWS values.
T = Trace of Precipitation, MM = Missing Value Source: NWS Daily Summary

Daily Weather History Graph

Daily Weather History Graph

Search for Another Location

Airport or City:

Trip Planner

Search our weather history database for the weather conditions in past years. The results will help you decide how hot, cold, wet, or windy it might be!

Date:

Astronomy

Jul. 10, 2012 Rise Set
Actual Time 6:18 AM EDT 8:43 PM EDT
Civil Twilight 5:48 AM EDT 9:13 PM EDT
Nautical Twilight 5:12 AM EDT 9:49 PM EDT
Astronomical Twilight 4:31 AM EDT 10:29 PM EDT
Moon 12:14 AM EDT (7/10) 1:25 PM EDT (7/10)
Length of Visible Light 15h 24m
Length of Day
14h 25m
Waning Gibbous, 54% of the Moon is Illuminated
Jul 10
Waning Gibbous
Jul 10
Last Quarter
Jul 19
New
Jul 26
First Quarter
Aug 1
Full

Hourly Weather History & Observations

Time (EDT) Temp. Heat Index Dew Point Humidity Pressure Visibility Wind Dir Wind Speed Gust Speed Precip Events Conditions
12:53 AM 73.0 °F - 69.1 °F 87% 29.95 in 10.0 mi East 8.1 mph - 0.10 in Rain Light Rain
1:31 AM 73.4 °F - 69.8 °F 88% 30.02 in 10.0 mi NE 6.9 mph - 0.01 in Thunderstorm Thunderstorm
1:53 AM 72.0 °F - 69.1 °F 91% 29.94 in 10.0 mi ENE 6.9 mph - 0.01 in Thunderstorm Overcast
2:53 AM 72.0 °F - 69.1 °F 91% 29.93 in 8.0 mi NE 5.8 mph - 0.01 in Rain , Thunderstorm Light Rain
3:05 AM 71.6 °F - 69.8 °F 94% 30.00 in 8.0 mi Calm Calm - 0.00 in Rain , Thunderstorm Light Rain
3:23 AM 71.6 °F - 69.8 °F 94% 30.00 in 10.0 mi Calm Calm - 0.00 in Rain , Thunderstorm Light Thunderstorms and Rain
3:34 AM 71.6 °F - 69.8 °F 94% 30.01 in 10.0 mi NE 3.5 mph - 0.00 in Rain , Thunderstorm Light Rain
3:53 AM 72.0 °F - 69.1 °F 91% 29.93 in 10.0 mi Calm Calm - 0.01 in Rain Light Rain
4:53 AM 71.1 °F - 70.0 °F 96% 29.94 in 7.0 mi Calm Calm - 0.05 in   Overcast
5:11 AM 71.6 °F - 69.8 °F 94% 30.01 in 8.0 mi Calm Calm - N/A   Overcast
6:08 AM 71.6 °F - 69.8 °F 94% 30.01 in 8.0 mi Calm Calm - N/A   Overcast
6:28 AM 71.6 °F - 69.8 °F 94% 30.01 in 6.0 mi WSW 3.5 mph - N/A   Overcast
6:40 AM 71.6 °F - 69.8 °F 94% 30.00 in 5.0 mi Calm Calm - N/A   Overcast
6:53 AM 72.0 °F - 70.0 °F 93% 29.93 in 4.0 mi Calm Calm - N/A   Overcast
7:53 AM 73.0 °F - 70.0 °F 90% 29.93 in 4.0 mi North 4.6 mph - N/A   Overcast
8:53 AM 75.0 °F - 69.1 °F 82% 29.96 in 10.0 mi NE 3.5 mph - N/A   Overcast
9:49 AM 75.2 °F - 69.8 °F 83% 30.04 in 10.0 mi Variable 3.5 mph - N/A   Scattered Clouds
9:53 AM 75.9 °F - 70.0 °F 82% 29.98 in 10.0 mi Variable 3.5 mph - N/A   Mostly Cloudy
10:11 AM 78.8 °F - 69.8 °F 74% 30.04 in 10.0 mi Calm Calm - N/A   Mostly Cloudy
10:53 AM 79.0 °F - 69.1 °F 72% 29.97 in 10.0 mi East 5.8 mph - N/A   Overcast
11:53 AM 78.1 °F - 69.1 °F 74% 29.99 in 10.0 mi Calm Calm - N/A   Overcast
12:24 PM 78.8 °F - 69.8 °F 74% 30.05 in 10.0 mi East 3.5 mph - N/A   Overcast
12:53 PM 80.1 °F 83.2 °F 70.0 °F 71% 29.97 in 10.0 mi SSW 4.6 mph - N/A   Mostly Cloudy
1:31 PM 82.4 °F 87.2 °F 71.6 °F 70% 30.02 in 10.0 mi Variable 4.6 mph - N/A   Mostly Cloudy
1:53 PM 81.0 °F 84.4 °F 70.0 °F 69% 29.96 in 10.0 mi East 3.5 mph - 0.00 in Rain Light Rain
2:04 PM 80.6 °F 83.9 °F 69.8 °F 70% 30.02 in 10.0 mi Variable 3.5 mph - 0.00 in   Overcast
2:35 PM 84.2 °F 88.4 °F 69.8 °F 62% 30.00 in 10.0 mi East 4.6 mph - 0.00 in   Mostly Cloudy
2:53 PM 86.0 °F 90.7 °F 70.0 °F 59% 29.92 in 10.0 mi Variable 3.5 mph - 0.00 in   Partly Cloudy
3:43 PM 75.2 °F - 69.8 °F 83% 29.99 in 10.0 mi NE 13.8 mph 23.0 mph 0.00 in   Overcast
3:50 PM 75.2 °F - 69.8 °F 83% 30.00 in 10.0 mi NNE 12.7 mph - 0.00 in Thunderstorm Overcast
3:53 PM 75.9 °F - 69.1 °F 79% 29.94 in 10.0 mi NE 13.8 mph - 0.00 in Thunderstorm Overcast
4:07 PM 75.2 °F - 69.8 °F 83% 30.01 in 9.0 mi East 9.2 mph - 0.01 in Rain , Thunderstorm Light Thunderstorms and Rain
4:16 PM 75.2 °F - 71.6 °F 89% 30.01 in 10.0 mi ENE 11.5 mph 17.3 mph 0.01 in Rain , Thunderstorm Light Thunderstorms and Rain
4:22 PM 75.2 °F - 71.6 °F 89% 30.01 in 10.0 mi East 10.4 mph 17.3 mph 0.01 in Rain Light Rain
4:29 PM 77.0 °F - 71.6 °F 83% 30.01 in 10.0 mi NE 10.4 mph - 0.01 in Rain Light Rain
4:45 PM 77.0 °F - 69.8 °F 78% 30.01 in 10.0 mi NE 8.1 mph - 0.01 in   Scattered Clouds
4:53 PM 78.1 °F - 70.0 °F 76% 29.94 in 10.0 mi NE 11.5 mph 17.3 mph 0.01 in   Partly Cloudy
5:53 PM 77.0 °F - 70.0 °F 79% 29.95 in 10.0 mi East 4.6 mph - N/A   Mostly Cloudy
6:04 PM 77.0 °F - 69.8 °F 78% 30.01 in 10.0 mi ENE 5.8 mph - N/A   Scattered Clouds
6:53 PM 75.9 °F - 68.0 °F 76% 29.96 in 10.0 mi NE 5.8 mph - N/A   Scattered Clouds
7:53 PM 75.9 °F - 68.0 °F 76% 29.96 in 10.0 mi North 4.6 mph - N/A   Mostly Cloudy
8:53 PM 75.0 °F - 68.0 °F 79% 29.98 in 10.0 mi North 4.6 mph - N/A   Mostly Cloudy
9:53 PM 73.0 °F - 68.0 °F 84% 30.01 in 10.0 mi NW 3.5 mph - N/A   Overcast
10:53 PM 71.1 °F - 69.1 °F 93% 30.01 in 3.0 mi Calm Calm - 0.10 in Rain Rain
11:53 PM 71.1 °F - 69.1 °F 93% 30.02 in 6.0 mi Calm Calm - 0.07 in Rain Light Rain